AAL1569 KDFW-KTPA

Flight info

Callsign AAL1569
Flight time N/A
Altitude 37000
Route MRSSH3 ZALEA HRV Q105 REDFN Y280 CHRGE RAYZZ3
Aircraft B38M/M-SDE1FGHILORVWXY/HB1

Departure

Time 2026-05-04 22:54
Airport Dallas Fort Worth International Airport (KDFW)

Arrival

Time N/A
Airport Tampa International Airport (KTPA)
Time Latitude Longitude Altitude Speed Heading
2026-05-04 22:31 32.90177 -97.03788 589 ft 0 kts 345°
2026-05-04 22:44 32.90164 -97.03784 589 ft 4 kts 345°
2026-05-04 22:44 32.90142 -97.03777 589 ft 4 kts 350°
2026-05-04 22:45 32.90121 -97.03781 589 ft 4 kts 48°
2026-05-04 22:45 32.90113 -97.03787 589 ft 4 kts 91°
2026-05-04 22:45 32.90113 -97.03759 589 ft 1 kts 91°
2026-05-04 22:48 32.90113 -97.03758 589 ft 1 kts 91°
2026-05-04 22:48 32.90112 -97.03741 589 ft 3 kts 91°
2026-05-04 22:48 32.90112 -97.03717 589 ft 0 kts 91°
2026-05-04 22:49 32.90112 -97.03716 589 ft 0 kts 91°
2026-05-04 22:49 32.90111 -97.03712 589 ft 2 kts 107°
2026-05-04 22:49 32.90094 -97.03685 589 ft 6 kts 123°
2026-05-04 22:49 32.90087 -97.03614 589 ft 11 kts 85°
2026-05-04 22:50 32.90091 -97.03510 589 ft 14 kts 90°
2026-05-04 22:50 32.90091 -97.03420 589 ft 6 kts 90°
2026-05-04 22:50 32.90090 -97.03358 589 ft 9 kts 90°
2026-05-04 22:50 32.90137 -97.03313 587 ft 11 kts
2026-05-04 22:51 32.90229 -97.03313 587 ft 15 kts
2026-05-04 22:51 32.90347 -97.03313 587 ft 19 kts
2026-05-04 22:51 32.90500 -97.03312 587 ft 24 kts
2026-05-04 22:51 32.90687 -97.03311 587 ft 29 kts
2026-05-04 22:52 32.90874 -97.03310 588 ft 25 kts 360°
2026-05-04 22:52 32.91058 -97.03275 582 ft 28 kts
2026-05-04 22:52 32.91258 -97.03273 584 ft 29 kts 360°
2026-05-04 22:52 32.91453 -97.03270 581 ft 19 kts
2026-05-04 22:53 32.91485 -97.03145 578 ft 17 kts 91°
2026-05-04 22:53 32.91470 -97.03004 585 ft 17 kts 127°
2026-05-04 22:53 32.91356 -97.02984 578 ft 18 kts 179°
2026-05-04 22:53 32.91187 -97.02990 579 ft 47 kts 180°
2026-05-04 22:54 32.90656 -97.02992 582 ft 104 kts 180°
2026-05-04 22:54 32.89769 -97.02995 599 ft 146 kts 179°
2026-05-04 22:54 32.88684 -97.02997 944 ft 163 kts 176°
2026-05-04 22:54 32.87687 -97.02959 2058 ft 117 kts 179°
2026-05-04 22:55 32.86832 -97.02940 2595 ft 133 kts 181°
2026-05-04 22:55 32.85835 -97.02938 2987 ft 153 kts 180°
2026-05-04 22:55 32.84685 -97.02938 3407 ft 179 kts 181°
2026-05-04 22:55 32.83362 -97.02940 3900 ft 200 kts 183°
2026-05-04 22:56 32.81899 -97.02949 4444 ft 221 kts 185°
2026-05-04 22:56 32.80296 -97.02959 5007 ft 240 kts 184°
2026-05-04 22:56 32.78565 -97.02970 5630 ft 256 kts 185°
2026-05-04 22:56 32.76765 -97.02981 6286 ft 267 kts 186°
2026-05-04 22:57 32.74883 -97.02992 7037 ft 273 kts 185°
2026-05-04 22:57 32.72960 -97.02777 7771 ft 286 kts 167°
2026-05-04 22:57 32.71197 -97.01599 8536 ft 302 kts 140°
2026-05-04 22:57 32.69992 -96.99526 9350 ft 313 kts 112°
2026-05-04 22:58 32.69449 -96.96995 10068 ft 321 kts 104°
2026-05-04 22:58 32.68930 -96.94347 10553 ft 337 kts 101°
2026-05-04 22:58 32.68833 -96.91530 11156 ft 347 kts 87°
2026-05-04 22:58 32.68898 -96.88648 11949 ft 351 kts 88°
2026-05-04 22:59 32.68951 -96.85730 12721 ft 357 kts 87°
2026-05-04 22:59 32.69001 -96.82758 13546 ft 362 kts 87°
2026-05-04 22:59 32.69048 -96.79745 14294 ft 368 kts 87°
2026-05-04 22:59 32.69095 -96.76733 15071 ft 372 kts 87°
2026-05-04 23:00 32.69141 -96.73649 15833 ft 377 kts 86°
2026-05-04 23:00 32.69188 -96.70515 16548 ft 382 kts 86°
2026-05-04 23:00 32.69234 -96.67341 17315 ft 386 kts 86°
2026-05-04 23:00 32.69280 -96.64135 18045 ft 391 kts 86°
2026-05-04 23:01 32.69325 -96.60885 18654 ft 397 kts 86°
2026-05-04 23:01 32.69371 -96.57584 19200 ft 404 kts 85°
2026-05-04 23:01 32.69416 -96.54230 19794 ft 409 kts 85°
2026-05-04 23:01 32.69461 -96.50825 20335 ft 416 kts 85°
2026-05-04 23:02 32.69506 -96.47412 20846 ft 422 kts 85°
2026-05-04 23:02 32.69550 -96.43907 21440 ft 427 kts 85°
2026-05-04 23:02 32.69594 -96.40357 21967 ft 433 kts 85°
2026-05-04 23:02 32.69638 -96.36762 22473 ft 439 kts 85°
2026-05-04 23:03 32.69629 -96.33110 22999 ft 446 kts 91°
2026-05-04 23:03 32.69344 -96.29417 23506 ft 452 kts 91°
2026-05-04 23:03 32.69080 -96.25675 23930 ft 457 kts 91°
2026-05-04 23:03 32.68830 -96.21911 24396 ft 460 kts 91°
2026-05-04 23:04 32.68585 -96.18108 24832 ft 464 kts 90°
2026-05-04 23:04 32.68339 -96.14275 25276 ft 468 kts 90°
2026-05-04 23:04 32.68095 -96.10466 25718 ft 471 kts 90°
2026-05-04 23:04 32.67844 -96.06574 26189 ft 473 kts 90°
2026-05-04 23:05 32.67592 -96.02677 26686 ft 475 kts 90°
2026-05-04 23:05 32.67337 -95.98745 27063 ft 480 kts 90°
2026-05-04 23:05 32.67077 -95.94779 27471 ft 484 kts 90°
2026-05-04 23:05 32.66815 -95.90785 27869 ft 488 kts 90°
2026-05-04 23:06 32.66550 -95.86760 28262 ft 492 kts 90°
2026-05-04 23:06 32.66273 -95.82696 28644 ft 496 kts 90°
2026-05-04 23:06 32.65991 -95.78666 29015 ft 499 kts 90°
2026-05-04 23:06 32.65703 -95.74540 29402 ft 503 kts 90°
2026-05-04 23:07 32.65411 -95.70389 29783 ft 507 kts 90°
2026-05-04 23:07 32.65117 -95.66214 30127 ft 510 kts 90°
2026-05-04 23:07 32.64819 -95.62006 30425 ft 513 kts 90°
2026-05-04 23:07 32.64519 -95.57780 30727 ft 516 kts 90°
2026-05-04 23:08 32.64214 -95.53517 31030 ft 519 kts 90°
2026-05-04 23:08 32.63907 -95.49241 31336 ft 522 kts 90°
2026-05-04 23:08 32.63596 -95.44933 31632 ft 525 kts 90°
2026-05-04 23:08 32.63286 -95.40661 31936 ft 528 kts 90°
2026-05-04 23:09 32.62969 -95.36309 32244 ft 531 kts 90°
2026-05-04 23:09 32.62649 -95.31932 32559 ft 534 kts 89°
2026-05-04 23:09 32.62325 -95.27530 32881 ft 536 kts 89°
2026-05-04 23:09 32.61999 -95.23117 33176 ft 539 kts 89°
2026-05-04 23:10 32.61668 -95.18671 33446 ft 542 kts 89°
2026-05-04 23:10 32.61335 -95.14205 33739 ft 545 kts 89°
2026-05-04 23:10 32.60998 -95.09718 33991 ft 548 kts 89°
2026-05-04 23:10 32.60659 -95.05210 34246 ft 550 kts 89°
2026-05-04 23:11 32.60320 -95.00744 34517 ft 552 kts 90°
2026-05-04 23:11 32.59975 -94.96200 34774 ft 554 kts 90°
2026-05-04 23:11 32.59627 -94.91642 35046 ft 556 kts 89°
2026-05-04 23:11 32.59276 -94.87070 35288 ft 558 kts 90°
2026-05-04 23:12 32.58909 -94.82486 35548 ft 560 kts 92°
2026-05-04 23:12 32.58174 -94.77931 35855 ft 566 kts 106°
2026-05-04 23:12 32.56548 -94.73691 36207 ft 565 kts 123°
2026-05-04 23:12 32.54396 -94.69798 36471 ft 566 kts 124°
2026-05-04 23:13 32.52280 -94.65862 36697 ft 566 kts 123°
2026-05-04 23:13 32.50190 -94.61982 36927 ft 566 kts 124°
2026-05-04 23:13 32.45951 -94.54149 36901 ft 562 kts 124°
2026-05-04 23:14 32.41721 -94.46350 36896 ft 564 kts 124°
2026-05-04 23:14 32.37482 -94.38549 36893 ft 564 kts 124°
2026-05-04 23:15 32.33265 -94.30806 36906 ft 564 kts 124°
2026-05-04 23:15 32.29016 -94.23020 36915 ft 564 kts 124°
2026-05-04 23:16 32.24766 -94.15246 36917 ft 563 kts 124°
2026-05-04 23:16 32.20516 -94.07489 36922 ft 562 kts 124°
2026-05-04 23:17 32.16290 -93.99793 36921 ft 562 kts 124°
2026-05-04 23:17 32.12034 -93.92058 36931 ft 562 kts 124°
2026-05-04 23:18 32.07768 -93.84321 36925 ft 562 kts 124°
2026-05-04 23:18 32.03498 -93.76591 36938 ft 563 kts 124°
2026-05-04 23:19 31.99251 -93.68918 36927 ft 562 kts 124°
2026-05-04 23:19 31.94983 -93.61223 36935 ft 561 kts 124°
2026-05-04 23:20 31.90711 -93.53537 36936 ft 561 kts 124°
2026-05-04 23:20 31.86439 -93.45867 36942 ft 561 kts 124°
2026-05-04 23:21 31.82187 -93.38246 36938 ft 561 kts 124°
2026-05-04 23:21 31.77905 -93.30587 36944 ft 561 kts 124°
2026-05-04 23:22 31.73620 -93.22939 36930 ft 559 kts 124°
2026-05-04 23:22 31.69346 -93.15325 36942 ft 558 kts 124°
2026-05-04 23:23 31.65074 -93.07729 36936 ft 558 kts 124°
2026-05-04 23:23 31.60819 -93.00180 36958 ft 559 kts 124°
2026-05-04 23:24 31.56524 -92.92573 36963 ft 561 kts 124°
2026-05-04 23:24 31.52168 -92.84875 36964 ft 571 kts 124°
2026-05-04 23:25 31.47761 -92.77100 36939 ft 572 kts 124°
2026-05-04 23:25 31.43387 -92.69402 36968 ft 571 kts 124°
2026-05-04 23:26 31.38983 -92.61664 36961 ft 572 kts 124°
2026-05-04 23:26 31.34562 -92.53913 36962 ft 573 kts 124°
2026-05-04 23:27 31.30138 -92.46171 36972 ft 573 kts 124°
2026-05-04 23:27 31.25738 -92.38487 36970 ft 573 kts 124°
2026-05-04 23:28 31.21304 -92.30758 36930 ft 572 kts 124°
2026-05-04 23:28 31.16874 -92.23053 36990 ft 571 kts 124°
2026-05-04 23:29 31.12442 -92.15359 36990 ft 571 kts 124°
2026-05-04 23:29 31.08029 -92.07712 36991 ft 571 kts 124°
2026-05-04 23:30 31.03587 -92.00030 36987 ft 572 kts 124°
2026-05-04 23:30 30.99135 -91.92346 36992 ft 572 kts 124°
2026-05-04 23:31 30.94679 -91.84670 36977 ft 573 kts 124°
2026-05-04 23:31 30.90241 -91.77040 36995 ft 572 kts 124°
2026-05-04 23:32 30.85776 -91.69380 36996 ft 572 kts 124°
2026-05-04 23:32 30.81308 -91.61728 36994 ft 572 kts 124°
2026-05-04 23:33 30.76834 -91.54080 36992 ft 572 kts 124°
2026-05-04 23:33 30.72357 -91.46443 36990 ft 571 kts 124°
2026-05-04 23:34 30.67909 -91.38871 36988 ft 571 kts 124°
2026-05-04 23:34 30.63425 -91.31251 36989 ft 571 kts 124°
2026-05-04 23:35 30.58935 -91.23634 37004 ft 571 kts 124°
2026-05-04 23:35 30.54445 -91.16032 37011 ft 571 kts 124°
2026-05-04 23:36 30.49949 -91.08436 37002 ft 570 kts 124°
2026-05-04 23:36 30.45489 -91.00914 37007 ft 570 kts 124°
2026-05-04 23:37 30.40988 -90.93337 37009 ft 570 kts 124°
2026-05-04 23:37 30.36494 -90.85787 37010 ft 568 kts 125°
2026-05-04 23:38 30.32005 -90.78258 37013 ft 568 kts 125°
2026-05-04 23:38 30.27542 -90.70789 37025 ft 568 kts 125°
2026-05-04 23:39 30.23046 -90.63277 37033 ft 568 kts 125°
2026-05-04 23:39 30.18543 -90.55768 37036 ft 568 kts 125°
2026-05-04 23:40 30.14157 -90.48468 37055 ft 546 kts 125°
2026-05-04 23:40 30.09792 -90.41214 37012 ft 554 kts 125°
2026-05-04 23:41 30.05377 -90.33887 37034 ft 564 kts 125°
2026-05-04 23:41 30.00875 -90.26430 37036 ft 567 kts 125°
2026-05-04 23:42 29.96361 -90.18967 37036 ft 567 kts 125°
2026-05-04 23:42 29.91848 -90.11518 37044 ft 567 kts 125°
2026-05-04 23:43 29.87356 -90.04118 37045 ft 567 kts 125°
2026-05-04 23:43 29.82548 -89.96946 37020 ft 566 kts 131°
2026-05-04 23:44 29.77486 -89.90013 37039 ft 565 kts 131°
2026-05-04 23:44 29.72418 -89.83108 37036 ft 565 kts 131°
2026-05-04 23:45 29.67384 -89.76261 37037 ft 565 kts 131°
2026-05-04 23:45 29.62306 -89.69365 37036 ft 565 kts 131°
2026-05-04 23:46 29.57228 -89.62482 37039 ft 565 kts 131°
2026-05-04 23:46 29.52152 -89.55613 37014 ft 564 kts 131°
2026-05-04 23:47 29.47084 -89.48765 37040 ft 562 kts 131°
2026-05-04 23:47 29.42048 -89.41974 37040 ft 562 kts 131°
2026-05-04 23:48 29.36978 -89.35148 37035 ft 562 kts 131°
2026-05-04 23:48 29.31906 -89.28331 37035 ft 562 kts 131°
2026-05-04 23:49 29.26833 -89.21521 37042 ft 562 kts 131°
2026-05-04 23:49 29.21792 -89.14770 37024 ft 560 kts 131°
2026-05-04 23:50 29.16731 -89.08000 37032 ft 560 kts 131°
2026-05-04 23:50 29.11669 -89.01241 37037 ft 560 kts 132°
2026-05-04 23:51 29.06600 -88.94484 37038 ft 560 kts 132°
2026-05-04 23:51 29.01562 -88.87780 37037 ft 559 kts 132°
2026-05-04 23:52 28.96490 -88.81040 37040 ft 560 kts 132°
2026-05-04 23:52 28.91417 -88.74308 37038 ft 557 kts 132°
2026-05-04 23:53 28.89022 -88.70837 37006 ft 557 kts 121°
2026-05-04 23:53 28.87390 -88.66874 37029 ft 549 kts 104°
2026-05-04 23:53 28.85104 -88.58583 37018 ft 552 kts 104°
2026-05-04 23:54 28.82776 -88.50226 37035 ft 553 kts 104°
2026-05-04 23:54 28.80454 -88.41870 37042 ft 553 kts 104°
2026-05-04 23:55 28.78123 -88.33510 37036 ft 553 kts 104°
2026-05-04 23:56 28.74617 -88.20972 37040 ft 554 kts 104°
2026-05-04 23:56 28.72288 -88.12670 37043 ft 554 kts 104°
2026-05-04 23:57 28.69938 -88.04315 37037 ft 553 kts 104°
2026-05-04 23:57 28.67583 -87.95968 37036 ft 553 kts 104°
2026-05-04 23:58 28.65223 -87.87624 37037 ft 553 kts 104°
2026-05-04 23:58 28.62859 -87.79286 37034 ft 551 kts 104°
2026-05-04 23:59 28.60587 -87.71298 37134 ft 521 kts 104°
2026-05-04 23:59 28.59496 -87.67465 37120 ft 497 kts 104°
2026-05-04 23:59 28.58453 -87.63809 37103 ft 475 kts 104°
2026-05-04 23:59 28.57454 -87.60308 37102 ft 453 kts 103°
2026-05-05 00:00 28.56509 -87.57002 37083 ft 428 kts 103°
2026-05-05 00:00 28.54724 -87.50762 36817 ft 416 kts 103°
2026-05-05 00:00 28.53828 -87.47637 36943 ft 413 kts 103°
2026-05-05 00:01 28.52955 -87.44594 37100 ft 410 kts 103°
2026-05-05 00:01 28.51180 -87.38413 37066 ft 414 kts 103°
2026-05-05 00:02 28.49378 -87.32152 37065 ft 419 kts 103°
2026-05-05 00:02 28.47552 -87.25822 37040 ft 424 kts 103°
2026-05-05 00:03 28.45698 -87.19403 37050 ft 430 kts 103°
2026-05-05 00:03 28.43815 -87.12902 37053 ft 437 kts 103°
2026-05-05 00:04 28.41899 -87.06296 37044 ft 444 kts 104°
2026-05-05 00:04 28.39955 -86.99611 37047 ft 453 kts 104°
2026-05-05 00:05 28.37957 -86.92750 37041 ft 463 kts 104°
2026-05-05 00:05 28.35905 -86.85722 37030 ft 474 kts 104°
2026-05-05 00:06 28.33803 -86.78535 37031 ft 486 kts 104°
2026-05-05 00:06 28.31649 -86.71178 37023 ft 497 kts 104°
2026-05-05 00:07 28.29470 -86.63700 37029 ft 508 kts 104°
2026-05-05 00:07 28.27376 -86.56529 37058 ft 519 kts 104°
2026-05-05 00:08 28.25077 -86.48668 37016 ft 531 kts 105°
2026-05-05 00:08 28.22723 -86.40644 37012 ft 542 kts 105°
2026-05-05 00:09 28.20335 -86.32524 37021 ft 550 kts 105°
2026-05-05 00:09 28.17910 -86.24296 37023 ft 550 kts 105°
2026-05-05 00:10 28.13070 -86.07938 37019 ft 551 kts 105°
2026-05-05 00:11 28.10644 -85.99767 37021 ft 551 kts 105°
2026-05-05 00:11 28.08196 -85.91545 37021 ft 551 kts 105°
2026-05-05 00:12 28.05745 -85.83333 37029 ft 551 kts 105°